TimeCDT,TemperatureF,Dew PointF,Humidity,Sea Level PressureIn,VisibilityMPH,Wind Direction,Wind SpeedMPH,Gust SpeedMPH,PrecipitationIn,Events,Conditions,WindDirDegrees,DateUTC
12:15 AM,71.1,51.6,50,29.89,10.0,SSE,9.2,-,N/A,,Clear,160,2013-05-01 05:15:00
12:35 AM,70.3,52.5,53,29.89,10.0,SSE,10.4,-,N/A,,Clear,150,2013-05-01 05:35:00
12:55 AM,70.0,52.9,55,29.89,10.0,SSE,10.4,-,N/A,,Clear,160,2013-05-01 05:55:00
1:15 AM,71.2,52.2,51,29.90,10.0,SSE,10.4,-,N/A,,Clear,160,2013-05-01 06:15:00
1:35 AM,72.0,50.5,47,29.90,10.0,South,11.5,-,N/A,,Clear,170,2013-05-01 06:35:00
1:55 AM,71.8,49.5,45,29.91,10.0,South,12.7,-,N/A,,Clear,180,2013-05-01 06:55:00
2:15 AM,71.4,49.1,45,29.91,10.0,South,11.5,-,N/A,,Clear,170,2013-05-01 07:15:00
2:35 AM,70.2,48.6,46,29.92,10.0,South,11.5,-,N/A,,Clear,180,2013-05-01 07:35:00
2:55 AM,70.2,48.2,46,29.92,10.0,South,11.5,-,N/A,,Clear,170,2013-05-01 07:55:00
3:15 AM,70.3,47.7,44,29.93,10.0,South,11.5,17.3,N/A,,Clear,180,2013-05-01 08:15:00
3:35 AM,69.6,48.2,46,29.93,10.0,South,11.5,-,N/A,,Clear,180,2013-05-01 08:35:00
3:55 AM,68.9,48.4,48,29.94,10.0,South,9.2,-,N/A,,Clear,190,2013-05-01 08:55:00
4:15 AM,67.5,48.7,51,29.94,10.0,South,9.2,-,N/A,,Clear,180,2013-05-01 09:15:00
4:35 AM,67.5,48.4,50,29.95,10.0,South,9.2,-,N/A,,Clear,180,2013-05-01 09:35:00
4:55 AM,67.1,48.6,51,29.95,10.0,South,8.1,-,N/A,,Clear,190,2013-05-01 09:55:00
5:15 AM,66.4,48.7,53,29.96,10.0,South,9.2,-,N/A,,Clear,180,2013-05-01 10:15:00
5:35 AM,65.8,48.7,54,29.97,10.0,South,9.2,-,N/A,,Clear,170,2013-05-01 10:35:00
5:55 AM,66.2,48.6,53,29.97,10.0,South,9.2,-,N/A,,Clear,170,2013-05-01 10:55:00
6:15 AM,66.2,48.6,53,29.98,10.0,South,8.1,-,N/A,,Clear,170,2013-05-01 11:15:00
6:35 AM,66.2,48.9,54,29.98,10.0,South,9.2,-,N/A,,Clear,180,2013-05-01 11:35:00
6:55 AM,67.1,49.1,52,29.99,10.0,South,9.2,-,N/A,,Clear,190,2013-05-01 11:55:00
7:15 AM,68.2,49.3,51,30.00,10.0,SSW,6.9,-,N/A,,Clear,200,2013-05-01 12:15:00
7:35 AM,68.5,49.5,50,30.02,10.0,West,9.2,-,N/A,,Clear,270,2013-05-01 12:35:00
8:15 AM,70.9,48.4,45,30.03,10.0,WSW,3.5,-,N/A,,Clear,240,2013-05-01 13:15:00
8:35 AM,72.0,47.7,42,30.03,10.0,WSW,3.5,-,N/A,,Clear,240,2013-05-01 13:35:00
9:15 AM,74.1,48.4,40,30.04,10.0,SW,3.5,-,N/A,,Clear,230,2013-05-01 14:15:00
9:35 AM,75.2,47.7,38,30.04,10.0,West,4.6,-,N/A,,Clear,270,2013-05-01 14:35:00
10:15 AM,76.1,49.8,40,30.05,10.0,NNW,4.6,-,N/A,,Clear,340,2013-05-01 15:15:00
10:35 AM,75.9,48.7,38,30.05,10.0,WNW,5.8,-,N/A,,Clear,300,2013-05-01 15:35:00
10:55 AM,77.0,49.1,37,30.05,10.0,West,3.5,-,N/A,,Clear,280,2013-05-01 15:55:00
11:15 AM,77.9,48.0,35,30.05,10.0,West,4.6,-,N/A,,Clear,260,2013-05-01 16:15:00
11:35 AM,80.4,47.3,31,30.05,10.0,South,3.5,-,N/A,,Clear,190,2013-05-01 16:35:00
11:55 AM,81.0,47.7,31,30.05,10.0,West,6.9,-,N/A,,Clear,280,2013-05-01 16:55:00
12:15 PM,81.7,46.8,29,30.05,10.0,WSW,4.6,-,N/A,,Clear,240,2013-05-01 17:15:00
12:35 PM,82.8,44.4,26,30.05,10.0,SSW,8.1,-,N/A,,Clear,210,2013-05-01 17:35:00
12:55 PM,83.5,43.3,24,30.04,10.0,SW,8.1,-,N/A,,Clear,220,2013-05-01 17:55:00
1:15 PM,84.4,40.1,21,30.04,10.0,South,5.8,-,N/A,,Clear,180,2013-05-01 18:15:00
1:35 PM,84.7,38.7,19,30.04,10.0,Calm,Calm,-,N/A,,Clear,0,2013-05-01 18:35:00
2:15 PM,85.1,38.7,19,30.04,10.0,Calm,Calm,-,N/A,,Scattered Clouds,0,2013-05-01 19:15:00
2:35 PM,84.6,40.5,21,30.03,10.0,Calm,Calm,-,N/A,,Scattered Clouds,0,2013-05-01 19:35:00
2:55 PM,86.5,38.3,18,30.03,10.0,Calm,Calm,-,N/A,,Scattered Clouds,0,2013-05-01 19:55:00
3:15 PM,86.9,38.3,18,30.03,10.0,Calm,Calm,-,N/A,,Clear,0,2013-05-01 20:15:00
3:35 PM,88.0,32.7,14,30.03,10.0,SSW,4.6,-,N/A,,Clear,210,2013-05-01 20:35:00
3:55 PM,86.7,32.5,14,30.02,10.0,SSE,6.9,-,N/A,,Clear,160,2013-05-01 20:55:00
4:15 PM,88.0,30.7,13,30.03,10.0,SE,9.2,-,N/A,,Scattered Clouds,140,2013-05-01 21:15:00
4:35 PM,88.9,28.8,12,30.03,10.0,SE,9.2,-,N/A,,Scattered Clouds,140,2013-05-01 21:35:00
4:55 PM,88.7,27.5,11,30.02,10.0,SSE,10.4,-,N/A,,Scattered Clouds,150,2013-05-01 21:55:00
5:15 PM,88.2,28.9,12,30.02,10.0,SE,13.8,18.4,N/A,,Scattered Clouds,140,2013-05-01 22:15:00
5:35 PM,87.6,30.0,13,30.02,10.0,SSE,10.4,16.1,N/A,,Scattered Clouds,160,2013-05-01 22:35:00
6:15 PM,84.0,34.0,17,30.03,10.0,SSE,10.4,-,N/A,,Scattered Clouds,150,2013-05-01 23:15:00
6:35 PM,85.3,32.5,15,30.03,10.0,South,9.2,-,N/A,,Scattered Clouds,170,2013-05-01 23:35:00
6:55 PM,83.3,36.1,19,30.03,10.0,South,6.9,-,N/A,,Scattered Clouds,170,2013-05-01 23:55:00
7:15 PM,77.9,41.5,27,30.04,10.0,NW,20.7,29.9,N/A,,Scattered Clouds,320,2013-05-02 00:15:00
7:35 PM,71.4,43.0,36,30.07,10.0,NNW,24.2,31.1,N/A,,Scattered Clouds,330,2013-05-02 00:35:00
7:55 PM,66.7,42.1,41,30.08,10.0,NNW,25.3,33.4,N/A,,Scattered Clouds,330,2013-05-02 00:55:00
8:35 PM,62.8,41.7,46,30.12,10.0,NNW,24.2,29.9,N/A,,Clear,330,2013-05-02 01:35:00
8:55 PM,61.0,41.5,49,30.13,10.0,NNW,23.0,29.9,N/A,,Clear,330,2013-05-02 01:55:00
9:35 PM,58.6,41.2,52,30.15,10.0,NNW,19.6,25.3,N/A,,Scattered Clouds,340,2013-05-02 02:35:00
9:55 PM,57.4,41.0,54,30.15,10.0,NNW,17.3,21.9,N/A,,Scattered Clouds,340,2013-05-02 02:55:00
10:15 PM,55.9,41.0,57,30.15,10.0,NNW,13.8,20.7,N/A,,Clear,330,2013-05-02 03:15:00
10:35 PM,55.6,41.2,58,30.15,10.0,NNW,13.8,18.4,N/A,,Clear,340,2013-05-02 03:35:00
10:55 PM,55.4,41.4,59,30.15,10.0,NNW,12.7,-,N/A,,Scattered Clouds,340,2013-05-02 03:55:00
11:15 PM,55.4,41.0,58,30.15,10.0,North,12.7,-,N/A,,Scattered Clouds,360,2013-05-02 04:15:00
11:35 PM,54.9,40.8,59,30.15,10.0,NNW,16.1,19.6,N/A,,Clear,340,2013-05-02 04:35:00
11:55 PM,54.5,40.6,60,30.16,10.0,NNW,13.8,-,N/A,,Clear,330,2013-05-02 04:55:00